Stations météo

Publicité
Nimes-Garons, France (7646): Température de l'air & dewpoint: 21.05.2019 05:00:00 - 27.05.2019 05:00:00 (CEST)Nimes-Garons, France (7646): Vitesse du vent & gusts: 21.05.2019 05:00:00 - 27.05.2019 05:00:00 (CEST)Nimes-Garons, France (7646): Direction du vent: 21.05.2019 05:00:00 - 27.05.2019 05:00:00 (CEST)Nimes-Garons, France (7646): reduced air pressure: 21.05.2019 05:00:00 - 27.05.2019 05:00:00 (CEST)Nimes-Garons, France (7646): visibility: 21.05.2019 05:00:00 - 27.05.2019 05:00:00 (CEST)Nimes-Garons, France (7646): Quantités de précipitations: 21.05.2019 05:00:00 - 27.05.2019 05:00:00 (CEST)
Date & Time tt [°C] td [°C] ff [km/h] ff [knt] fx [km/h] fx [knt] dd ppp [hPa] vv [km] rr [mm]
27.05.2019 05:00:00 - - - - - - - - - -
27.05.2019 04:00:00 16,5 8,9 15 8 29 16 NNW 1010,6 60 0,0
27.05.2019 03:00:00 16,9 8,6 16 8 24 13 NNW 1010,8 60 0,0
27.05.2019 02:00:00 16,9 8,3 11 6 25 14 NW 1011,5 60 0,0
27.05.2019 01:00:00 17,5 7,8 13 7 23 13 NNW 1011,8 60 0,0
27.05.2019 00:00:00 18,1 7,8 11 6 22 12 NW 1012,1 60 0,0
26.05.2019 23:00:00 17,7 8,5 11 6 18 10 NNW 1012,2 60 0,0
26.05.2019 22:00:00 19,8 7,8 11 6 29 16 N 1011,6 59 0,0
26.05.2019 21:00:00 22,1 7,1 20 11 35 19 NNE 1011,1 58 0,0
26.05.2019 20:00:00 24,1 6,8 20 11 40 22 NNE 1011,1 28 0,0
26.05.2019 19:00:00 25,3 7,4 23 12 50 27 NNE 1011,1 30 0,0
26.05.2019 18:00:00 25,7 7,3 21 11 45 24 NNE 1011,5 36 0,0
26.05.2019 17:00:00 25,0 6,7 23 12 44 24 N 1012,0 60 0,0
26.05.2019 16:00:00 24,7 7,3 23 13 49 26 N 1012,6 40 0,0
26.05.2019 15:00:00 25,1 7,7 26 14 48 26 NNE 1012,8 36 0,0
26.05.2019 14:00:00 24,1 8,1 28 15 51 28 N 1013,4 24 0,0
26.05.2019 13:00:00 24,7 9,4 26 14 59 32 NNE 1013,7 22 0,0
26.05.2019 12:00:00 23,1 8,0 33 18 55 30 NNE 1014,0 24 0,0
26.05.2019 11:00:00 22,2 9,4 27 15 51 28 N 1014,1 27 0,0
26.05.2019 10:00:00 21,0 10,2 27 14 48 26 N 1014,2 32 0,0
26.05.2019 09:00:00 19,5 9,9 22 12 39 21 N 1014,5 36 0,0
26.05.2019 08:00:00 17,6 9,7 11 6 26 14 N 1014,6 37 0,0
26.05.2019 07:00:00 15,4 9,1 9 5 22 12 NNW 1014,4 58 0,0
26.05.2019 06:00:00 14,1 9,5 9 5 23 13 NNW 1014,3 52 0,0
26.05.2019 05:00:00 15,9 9,8 14 8 22 12 NNW 1014,4 60 0,0
26.05.2019 04:00:00 15,6 10,6 11 6 21 11 NW 1014,6 55 0,0
26.05.2019 03:00:00 15,7 11,1 11 6 19 10 NW 1014,7 54 0,0
26.05.2019 02:00:00 16,4 11,3 12 6 21 12 NW 1015,1 55 0,0
26.05.2019 01:00:00 17,2 11,9 11 6 17 9 NNW 1015,5 57 0,0
26.05.2019 00:00:00 16,8 12,1 10 5 19 10 NNW 1015,5 54 0,0
25.05.2019 23:00:00 17,1 12,6 6 4 14 8 NNW 1015,6 34 0,0
25.05.2019 22:00:00 17,7 13,4 7 4 16 9 NW 1014,9 49 0,0
25.05.2019 21:00:00 18,2 13,3 13 7 25 13 WNW 1014,3 56 0,0
25.05.2019 20:00:00 19,1 15,2 10 5 35 19 WNW 1013,9 40 4,1
25.05.2019 19:00:00 22,4 12,9 9 5 22 12 W 1013,3 51 0,0
25.05.2019 18:00:00 21,7 12,5 9 5 19 10 W 1013,1 60 0,0
25.05.2019 17:00:00 20,4 14,1 6 4 36 19 NW 1013,2 11 2,6
25.05.2019 16:00:00 26,5 9,4 18 10 36 19 NNE 1012,7 47 0,0
25.05.2019 15:00:00 27,0 7,9 18 10 35 19 NNE 1013,2 46 0,0
25.05.2019 14:00:00 26,7 9,5 26 14 44 24 NNE 1013,6 54 0,0
25.05.2019 13:00:00 25,9 9,7 23 12 44 24 NNE 1013,9 60 0,0
25.05.2019 12:00:00 24,0 10,6 20 11 31 17 N 1014,3 60 0,0
25.05.2019 11:00:00 21,7 12,3 10 5 21 11 NNE 1014,8 27 0,0
25.05.2019 10:00:00 20,5 11,9 9 5 15 8 NNE 1014,6 55 0,0
25.05.2019 09:00:00 18,9 11,5 8 4 11 6 NNE 1014,5 38 0,0
25.05.2019 08:00:00 16,4 13,7 4 2 9 5 NNW 1014,1 31 0,0
25.05.2019 07:00:00 14,4 12,4 0 0 8 4 N 1013,7 25 0,0
25.05.2019 06:00:00 14,6 13,3 5 3 13 7 W 1013,5 13 0,0
25.05.2019 05:00:00 14,6 13,8 3 2 15 8 S 1013,2 5 0,0
25.05.2019 04:00:00 14,4 13,9 7 4 13 7 NW 1013,1 2,6 0,0
25.05.2019 03:00:00 14,2 13,6 4 2 6 3 NW 1013,2 2,9 0,0
25.05.2019 02:00:00 15,0 14,2 0 0 8 4 N 1013,6 4,4 0,0
25.05.2019 01:00:00 15,5 14,4 4 2 9 5 SSE 1013,9 6 0,0
25.05.2019 00:00:00 15,6 14,5 4 2 14 8 ESE 1014,0 6 0,0
24.05.2019 23:00:00 16,0 14,5 10 5 14 8 SE 1014,0 12 0,0
24.05.2019 22:00:00 16,6 14,4 9 5 16 9 SSE 1013,6 13 0,0
24.05.2019 21:00:00 17,0 14,8 8 5 18 10 SE 1013,2 15 0,0
24.05.2019 20:00:00 17,1 14,7 9 5 22 12 SSE 1013,0 13 0,0
24.05.2019 19:00:00 18,2 14,5 14 8 23 12 S 1012,8 19 0,0
24.05.2019 18:00:00 18,5 12,7 13 7 29 16 S 1012,8 34 0,0
24.05.2019 17:00:00 20,1 14,7 18 10 26 14 S 1012,9 36 0,0
24.05.2019 16:00:00 20,7 14,3 12 7 24 13 SSW 1013,1 20 0,0
24.05.2019 15:00:00 21,0 15,1 14 8 27 14 SSW 1013,3 20 0,0
24.05.2019 14:00:00 21,5 13,4 15 8 24 13 SSW 1013,9 47 0,0
24.05.2019 13:00:00 21,7 13,8 8 4 18 10 WSW 1014,1 20 0,0
24.05.2019 12:00:00 20,5 12,2 4 2 13 7 W 1014,4 20 0,0
24.05.2019 11:00:00 19,7 12,9 2 1 10 5 ESE 1014,6 18 0,0
24.05.2019 10:00:00 18,9 12,4 3 2 7 4 SE 1014,6 20 0,0
24.05.2019 09:00:00 18,1 13,4 3 2 9 5 E 1014,3 12 0,0
24.05.2019 08:00:00 15,3 14,3 4 2 6 4 ENE 1014,2 6 0,0
24.05.2019 07:00:00 13,6 13,3 0 0 4 2 N 1014,4 1,7 0,0
24.05.2019 06:00:00 12,7 12,4 3 2 5 3 NNE 1014,2 0,9 0,0
24.05.2019 05:00:00 12,8 12,2 0 0 7 4 N 1014,2 0,2 0,0
24.05.2019 04:00:00 14,4 13,8 4 2 11 6 E 1014,2 1,7 0,0
24.05.2019 03:00:00 14,6 13,8 6 4 10 5 SE 1014,5 2,3 0,0
24.05.2019 02:00:00 14,6 12,5 5 3 14 8 ESE 1014,8 13 0,0
24.05.2019 01:00:00 15,2 12,1 10 6 13 7 SE 1015,1 23 0,0
24.05.2019 00:00:00 15,5 11,1 9 5 11 6 SE 1015,2 36 0,0
23.05.2019 23:00:00 16,0 10,1 7 4 11 6 SSE 1015,4 41 0,0
23.05.2019 22:00:00 17,0 9,4 7 4 20 11 SW 1015,1 52 0,0
23.05.2019 21:00:00 18,1 9,4 11 6 22 12 WSW 1015,0 56 0,0
23.05.2019 20:00:00 20,4 7,0 13 7 29 16 SW 1014,7 41 0,0
23.05.2019 19:00:00 23,2 9,6 16 9 28 15 WSW 1014,3 35 0,0
23.05.2019 18:00:00 24,2 9,4 12 7 26 14 SW 1014,4 37 0,0
23.05.2019 17:00:00 24,7 9,0 15 8 29 16 SW 1014,8 43 0,0
23.05.2019 16:00:00 24,4 10,7 16 8 33 18 S 1015,0 47 0,0
23.05.2019 15:00:00 24,3 10,9 19 11 32 17 SSW 1015,3 55 0,0
23.05.2019 14:00:00 25,3 4,9 6 4 20 11 WSW 1015,9 20 0,0
23.05.2019 13:00:00 24,9 7,1 8 4 23 12 ENE 1016,2 59 0,0
23.05.2019 12:00:00 23,8 6,1 11 6 22 12 NE 1016,6 60 0,0
23.05.2019 11:00:00 22,5 5,4 13 7 27 15 NE 1016,9 60 0,0
23.05.2019 10:00:00 21,3 6,0 17 9 31 17 NNE 1017,0 60 0,0
23.05.2019 09:00:00 19,3 7,1 17 9 29 16 N 1016,9 44 0,0
23.05.2019 08:00:00 16,6 8,0 9 5 15 8 NNW 1016,8 49 0,0
23.05.2019 07:00:00 14,4 7,7 9 5 16 8 NW 1016,5 51 0,0
23.05.2019 06:00:00 13,3 6,6 10 5 15 8 WNW 1016,4 52 0,0
23.05.2019 05:00:00 14,1 7,2 12 6 19 10 NNW 1016,2 55 0,0
23.05.2019 04:00:00 15,0 7,3 13 7 24 13 N 1016,4 49 0,0
23.05.2019 03:00:00 15,1 7,4 9 5 19 10 N 1016,6 50 0,0
23.05.2019 02:00:00 16,2 7,7 14 8 20 11 N 1016,7 52 0,0
23.05.2019 01:00:00 16,3 7,8 11 6 20 11 N 1016,6 53 0,0
23.05.2019 00:00:00 17,1 7,7 7 4 16 9 N 1016,7 53 0,0
22.05.2019 23:00:00 17,6 8,2 8 4 17 9 N 1016,7 57 0,0
22.05.2019 22:00:00 18,2 9,5 6 4 15 8 WNW 1016,4 58 0,0
22.05.2019 21:00:00 20,5 7,1 6 3 23 12 NNW 1015,9 60 0,0
22.05.2019 20:00:00 22,8 6,1 4 2 34 18 NNW 1015,4 60 0,0
22.05.2019 19:00:00 24,9 7,1 16 9 35 19 NNE 1014,6 60 0,0
22.05.2019 18:00:00 25,7 6,8 19 11 31 17 NNE 1014,4 27 0,0
22.05.2019 17:00:00 26,5 6,5 16 9 39 21 N 1014,5 28 0,0
22.05.2019 16:00:00 26,7 6,7 18 10 38 21 N 1014,7 31 0,0
22.05.2019 15:00:00 25,9 7,0 19 10 44 24 N 1015,0 23 0,0
22.05.2019 14:00:00 25,2 7,8 25 13 42 23 N 1015,3 25 0,0
22.05.2019 13:00:00 24,2 9,0 24 13 43 23 N 1015,5 27 0,0
22.05.2019 12:00:00 23,2 8,8 27 15 49 26 NNW 1015,7 30 0,0
22.05.2019 11:00:00 21,9 7,7 23 13 49 26 N 1015,6 32 0,0
22.05.2019 10:00:00 20,5 7,5 32 17 50 27 N 1015,6 40 0,0
22.05.2019 09:00:00 19,0 8,0 25 13 42 23 N 1015,6 35 0,0
22.05.2019 08:00:00 17,1 8,2 18 10 29 16 NNW 1015,7 40 0,0
22.05.2019 07:00:00 15,0 7,5 17 9 27 15 NNW 1015,3 27 0,0
22.05.2019 06:00:00 14,4 7,4 16 9 31 17 NNW 1014,8 60 0,0
22.05.2019 05:00:00 15,1 7,6 13 7 29 16 NNW 1014,7 48 0,0
22.05.2019 04:00:00 15,3 7,8 14 7 28 15 NNW 1014,6 60 0,0
22.05.2019 03:00:00 15,9 7,9 16 9 33 18 NNW 1014,6 59 0,0
22.05.2019 02:00:00 15,9 7,9 15 8 25 13 NNW 1014,6 60 0,0
22.05.2019 01:00:00 15,8 8,0 16 9 26 14 NW 1014,9 59 0,0
22.05.2019 00:00:00 16,1 8,1 11 6 21 11 NW 1015,2 57 0,0
21.05.2019 23:00:00 16,9 8,3 10 6 29 16 NW 1014,9 55 0,0
21.05.2019 22:00:00 18,9 7,6 19 10 39 21 N 1014,1 60 0,0
21.05.2019 21:00:00 20,3 7,6 23 12 41 22 N 1013,2 57 0,0
21.05.2019 20:00:00 21,8 7,2 22 12 44 24 NNW 1012,6 30 0,0
21.05.2019 19:00:00 22,8 6,5 28 15 48 26 N 1012,2 26 0,0
21.05.2019 18:00:00 24,4 8,4 23 12 48 26 NNW 1012,0 29 0,0
21.05.2019 17:00:00 23,8 8,6 24 13 42 23 N 1012,2 35 0,0
21.05.2019 16:00:00 25,3 9,6 25 13 41 22 NNW 1012,1 30 0,0
21.05.2019 15:00:00 22,6 8,3 21 12 44 24 N 1012,5 28 0,0
21.05.2019 14:00:00 23,5 9,8 26 14 44 24 N 1012,6 34 0,0
21.05.2019 13:00:00 21,5 8,7 29 16 48 26 N 1012,8 26 0,0
21.05.2019 12:00:00 22,1 8,9 31 17 50 27 N 1012,8 28 0,0
21.05.2019 11:00:00 21,1 9,0 31 17 46 25 N 1013,0 31 0,0
21.05.2019 10:00:00 19,7 10,1 18 10 29 16 NNW 1012,9 37 0,0
21.05.2019 09:00:00 17,3 9,9 11 6 22 12 NW 1012,9 44 0,0
21.05.2019 08:00:00 14,5 9,3 9 5 15 8 WNW 1012,7 48 0,0
21.05.2019 07:00:00 12,1 8,2 9 5 15 8 W 1012,6 45 0,0
21.05.2019 06:00:00 11,3 7,6 10 5 16 8 W 1012,4 44 0,0
21.05.2019 05:00:00 11,7 7,6 10 6 17 9 NW 1012,3 49 0,0

tt = Température de l'air
td = dewpoint
ff = Vitesse du vent
fx = gusts
dd = Direction du vent
ppp = reduced air pressure
vv = visibility
rr = Quantités de précipitations

stations d'obs. à proximité